Grand Forks, ND

6:59 PM CST on December 13, 2017 (GMT -0600)
Grand Forks International

Weather History for KGFK - March, 2013

Change the Weather History Date:

Friday, March 22, 2013

  Actual Average Record
Temperature  
Mean Temperature 5 °F 28 °F  
Max Temperature 19 °F 37 °F 69 °F (1945)
Min Temperature -10 °F 19 °F -15 °F (1974)
Degree Days  
Heating Degree Days 60 37  
Month to date heating degree days 1167 932  
Since 1 July heating degree days 8168 8082  
Cooling Degree Days 0 0  
Month to date cooling degree days 0 0  
Year to date cooling degree days 0 0  
Moisture  
Dew Point -1 °F    
Average Humidity 79    
Maximum Humidity 90    
Minimum Humidity 67    
Precipitation  
Precipitation 0.00 in 0.04 in 0.54 in (2009)
Month to date precipitation 0.97 0.68  
Year to date precipitation 1.76 1.75  
Snow  
Snow 0.00 in 0.20 in 4.00 in (1962)
Month to date snowfall 13.3 5.8  
Since 1 July snowfall 43.2 43.0  
Snow Depth 12.00 in    
Sea Level Pressure  
Sea Level Pressure 30.17 in    
Wind  
Wind Speed 5 mph (NW)    
Max Wind Speed 9 mph    
Max Gust Speed 9 mph    
Visibility 10 miles    
Events      
T = Trace of Precipitation, MM = Missing Value Source: NWS Daily Summary

Daily Weather History Graph

Daily Weather History Graph

Search for Another Location

Airport or City:

Trip Planner

Search our weather history database for the weather conditions in past years. The results will help you decide how hot, cold, wet, or windy it might be!

Date:

Astronomy

Mar. 22, 2013 Rise Set
Actual Time 7:26 AM CDT 7:44 PM CDT
Civil Twilight 6:55 AM CDT 8:15 PM CDT
Nautical Twilight 6:19 AM CDT 8:52 PM CDT
Astronomical Twilight 5:41 AM CDT 9:30 PM CDT
Moon 2:55 PM CDT (3/22) 4:47 AM CDT (3/22)
Length of Visible Light 13h 19m
Length of Day
12h 17m
Waxing Gibbous, 77% of the Moon is Illuminated
Mar 22
Waxing Gibbous
Mar 27
Full
Apr 2
Last Quarter
Apr 10
New
Apr 18
First Quarter

Hourly Weather History & Observations

Time (CDT) Temp. Windchill Dew Point Humidity Pressure Visibility Wind Dir Wind Speed Gust Speed Precip Events Conditions
12:53 AM -2.9 °F -15.0 °F -6.0 °F 87% 30.19 in 10.0 mi NNW 5.8 mph - N/A   Clear
1:53 AM -2.0 °F -10.1 °F -6.0 °F 83% 30.18 in 10.0 mi NW 3.5 mph - N/A   Clear
2:53 AM -8.0 °F -16.9 °F -11.0 °F 86% 30.18 in 10.0 mi West 3.5 mph - N/A   Clear
3:53 AM -7.1 °F -21.4 °F -11.0 °F 83% 30.17 in 10.0 mi WNW 6.9 mph - N/A   Clear
4:53 AM -5.1 °F -17.6 °F -9.0 °F 83% 30.16 in 10.0 mi NW 5.8 mph - N/A   Clear
5:53 AM -7.1 °F -18.1 °F -9.9 °F 87% 30.17 in 10.0 mi NW 4.6 mph - N/A   Clear
6:53 AM -9.9 °F -21.5 °F -13.0 °F 86% 30.17 in 10.0 mi NW 4.6 mph - N/A   Clear
7:53 AM -8.0 °F -19.2 °F -11.9 °F 83% 30.18 in 10.0 mi WNW 4.6 mph - N/A   Partly Cloudy
8:53 AM -4.0 °F -12.4 °F -9.9 °F 76% 30.18 in 10.0 mi NNW 3.5 mph - N/A   Partly Cloudy
9:53 AM 1.0 °F -8.7 °F -4.0 °F 79% 30.17 in 7.0 mi NNE 4.6 mph - N/A   Partly Cloudy
10:53 AM 5.0 °F - -0.0 °F 80% 30.16 in 10.0 mi Calm Calm - N/A   Partly Cloudy
11:53 AM 8.1 °F -2.0 °F 1.9 °F 76% 30.16 in 10.0 mi NNW 5.8 mph - N/A   Scattered Clouds
12:53 PM 12.0 °F 4.1 °F 3.9 °F 70% 30.15 in 10.0 mi NW 4.6 mph - N/A   Scattered Clouds
1:53 PM 15.1 °F 7.7 °F 6.1 °F 68% 30.15 in 10.0 mi North 4.6 mph - N/A   Clear
2:53 PM 18.0 °F 11.1 °F 8.1 °F 65% 30.15 in 10.0 mi NW 4.6 mph - N/A   Partly Cloudy
3:53 PM 18.0 °F 7.7 °F 10.0 °F 71% 30.14 in 10.0 mi North 8.1 mph - N/A   Scattered Clouds
4:53 PM 18.0 °F 9.8 °F 10.0 °F 71% 30.15 in 10.0 mi NNW 5.8 mph - N/A   Mostly Cloudy
5:53 PM 17.1 °F 8.7 °F 10.9 °F 77% 30.16 in 10.0 mi NW 5.8 mph - N/A   Mostly Cloudy
6:53 PM 14.0 °F 5.1 °F 9.0 °F 80% 30.17 in 10.0 mi NNW 5.8 mph - N/A   Mostly Cloudy
7:53 PM 10.9 °F 2.9 °F 7.0 °F 84% 30.18 in 10.0 mi NW 4.6 mph - N/A   Mostly Cloudy
8:53 PM 8.1 °F -0.5 °F 3.9 °F 83% 30.19 in 10.0 mi North 4.6 mph - N/A   Mostly Cloudy
9:53 PM 5.0 °F -5.6 °F 1.9 °F 87% 30.19 in 10.0 mi NNW 5.8 mph - N/A   Overcast
10:53 PM 6.1 °F -5.6 °F 3.0 °F 87% 30.20 in 10.0 mi NW 6.9 mph - N/A   Overcast
11:53 PM 7.0 °F -3.3 °F 1.9 °F 80% 30.19 in 10.0 mi WNW 5.8 mph - N/A   Clear